Weather History for KALX - November, 2013

Change the Weather History Date:

Friday, November 8, 2013

  Actual Average (KAUO) Record (KAUO)
Temperature  
Mean Temperature 52 °F -  
Max Temperature 65 °F - 83 °F (1986)
Min Temperature 39 °F - 28 °F (1967)
Degree Days  
Heating Degree Days 13    
Month to date heating degree days  
Since 1 July heating degree days  
Growing Degree Days 2 (Base 50)    
Moisture  
Dew Point 29 °F    
Average Humidity 51    
Maximum Humidity 83    
Minimum Humidity 13    
Precipitation  
Precipitation 0.00 in - 0.80 in (2000)
Month to date precipitation  
Year to date precipitation  
Sea Level Pressure  
Sea Level Pressure 30.29 in    
Wind  
Wind Speed 3 mph (NNE)    
Max Wind Speed 15 mph    
Max Gust Speed 20 mph    
Visibility 10 miles    
Events      
T = Trace of Precipitation, MM = Missing Value Source: NWS Daily Summary

Daily Weather History Graph

Daily Weather History Graph

Search for Another Location

Airport or City:

Trip Planner

Search our weather history database for the weather conditions in past years. The results will help you decide how hot, cold, wet, or windy it might be!

Date:

Astronomy

Nov. 08, 2013 Rise Set
Actual Time 6:08 AM CST 4:46 PM CST
Civil Twilight 5:42 AM CST 5:12 PM CST
Nautical Twilight 5:12 AM CST 5:42 PM CST
Astronomical Twilight 4:43 AM CST 6:11 PM CST
Moon 11:03 AM CST (11/8) 10:05 PM CST (11/8)
Length of Visible Light 11h 30m
Length of Day
10h 38m
Waxing Crescent, 33% of the Moon is Illuminated
Nov 8
Waxing Crescent
Nov 9
First Quarter
Nov 17
Full
Nov 25
Last Quarter
Dec 2
New

Hourly Weather History & Observations

Time (CST) Temp. Windchill Dew Point Humidity Pressure Visibility Wind Dir Wind Speed Gust Speed Precip Events Conditions
12:15 AM 40.1 °F - 34.7 °F 81% 30.28 in 10.0 mi Calm Calm - N/A   Clear
12:35 AM 40.1 °F - 35.2 °F 83% 30.28 in 10.0 mi Calm Calm - N/A   Clear
12:55 AM 40.1 °F - 35.1 °F 82% 30.28 in 10.0 mi Calm Calm - N/A   Clear
1:15 AM 39.7 °F - 34.7 °F 82% 30.28 in 10.0 mi Calm Calm - N/A   Clear
1:35 AM 40.6 °F - 33.8 °F 77% 30.27 in 10.0 mi Calm Calm - N/A   Clear
1:55 AM 40.8 °F - 32.0 °F 71% 30.28 in 10.0 mi Calm Calm - N/A   Clear
2:15 AM 41.0 °F - 32.0 °F 70% 30.28 in 10.0 mi Calm Calm - N/A   Clear
2:35 AM 42.8 °F - 31.1 °F 63% 30.28 in 10.0 mi Calm Calm - N/A   Clear
2:55 AM 42.4 °F - 31.1 °F 64% 30.28 in 10.0 mi Calm Calm - N/A   Clear
3:15 AM 40.1 °F - 32.4 °F 74% 30.28 in 10.0 mi Calm Calm - N/A   Clear
3:35 AM 41.5 °F 37.8 °F 30.6 °F 65% 30.28 in 10.0 mi North 5.8 mph - N/A   Clear
3:55 AM 43.0 °F 38.2 °F 29.3 °F 59% 30.28 in 10.0 mi North 8.1 mph - N/A   Clear
4:15 AM 42.8 °F 41.1 °F 29.1 °F 58% 30.29 in 10.0 mi North 3.5 mph - N/A   Clear
4:35 AM 41.7 °F - 29.5 °F 62% 30.29 in 10.0 mi Calm Calm - N/A   Clear
4:55 AM 41.4 °F - 29.3 °F 62% 30.30 in 10.0 mi Calm Calm - N/A   Clear
5:15 AM 40.1 °F 38.0 °F 30.2 °F 68% 30.30 in 10.0 mi North 3.5 mph - N/A   Clear
5:35 AM 40.1 °F 38.0 °F 29.7 °F 66% 30.31 in 10.0 mi North 3.5 mph - N/A   Clear
5:55 AM 40.1 °F - 29.8 °F 67% 30.32 in 10.0 mi Calm Calm - N/A   Clear
6:15 AM 40.1 °F 38.0 °F 31.1 °F 70% 30.32 in 10.0 mi North 3.5 mph - N/A   Clear
6:35 AM 39.9 °F 36.7 °F 31.5 °F 72% 30.33 in 10.0 mi North 4.6 mph - N/A   Clear
6:55 AM 41.4 °F 38.4 °F 30.0 °F 64% 30.33 in 10.0 mi North 4.6 mph - N/A   Clear
7:15 AM 43.2 °F 37.9 °F 29.7 °F 59% 30.34 in 10.0 mi North 9.2 mph - N/A   Clear
7:35 AM 44.8 °F 40.4 °F 29.8 °F 56% 30.34 in 10.0 mi North 8.1 mph - N/A   Clear
7:55 AM 47.7 °F - 29.3 °F 49% 30.35 in 10.0 mi NNE 10.4 mph - N/A   Clear
8:15 AM 50.2 °F - 31.1 °F 48% 30.36 in 10.0 mi NNE 6.9 mph 16.1 mph N/A   Clear
8:55 AM 51.6 °F - 29.8 °F 43% 30.36 in 10.0 mi NNE 12.7 mph 17.3 mph N/A   Clear
9:15 AM 55.4 °F - 29.8 °F 38% 30.36 in 10.0 mi NNE 15.0 mph - N/A   Clear
9:35 AM 55.4 °F - 26.4 °F 33% 30.35 in 10.0 mi NNE 10.4 mph 19.6 mph N/A   Clear
9:55 AM 57.0 °F - 23.9 °F 28% 30.35 in 10.0 mi North 8.1 mph 16.1 mph N/A   Clear
10:15 AM 57.7 °F - 21.4 °F 24% 30.35 in 10.0 mi NE 5.8 mph 16.1 mph N/A   Clear
10:35 AM 58.1 °F - 19.0 °F 22% 30.34 in 10.0 mi North 8.1 mph 16.1 mph N/A   Clear
10:55 AM 60.3 °F - 19.0 °F 20% 30.33 in 10.0 mi North 10.4 mph - N/A   Clear
11:15 AM 61.7 °F - 19.6 °F 20% 30.32 in 10.0 mi East 8.1 mph - N/A   Clear
11:35 AM 61.7 °F - 18.3 °F 19% 30.31 in 10.0 mi NNE 6.9 mph - N/A   Clear
11:55 AM 61.9 °F - 17.8 °F 18% 30.29 in 10.0 mi North 8.1 mph - N/A   Clear
12:15 PM 62.8 °F - 18.0 °F 18% 30.29 in 10.0 mi NNE 9.2 mph - N/A   Clear
12:35 PM 62.8 °F - 16.2 °F 16% 30.28 in 10.0 mi North 10.4 mph - N/A   Clear
12:55 PM 63.1 °F - 14.7 °F 15% 30.28 in 10.0 mi NNE 9.2 mph - N/A   Clear
1:15 PM 63.5 °F - 15.3 °F 15% 30.27 in 10.0 mi North 10.4 mph - N/A   Clear
1:35 PM 63.5 °F - 14.2 °F 15% 30.27 in 10.0 mi NNE 4.6 mph - N/A   Clear
1:55 PM 64.9 °F - 14.4 °F 14% 30.26 in 10.0 mi NE 4.6 mph - N/A   Clear
2:15 PM 65.5 °F - 12.9 °F 13% 30.26 in 10.0 mi NNE 9.2 mph - N/A   Clear
2:35 PM 65.5 °F - 13.8 °F 14% 30.25 in 10.0 mi NNE 9.2 mph - N/A   Clear
2:55 PM 63.7 °F - 10.9 °F 13% 30.25 in 10.0 mi NNE 5.8 mph - N/A   Clear
3:15 PM 63.7 °F - 11.8 °F 13% 30.25 in 10.0 mi NE 6.9 mph - N/A   Clear
3:35 PM 63.5 °F - 12.9 °F 14% 30.25 in 10.0 mi NE 5.8 mph - N/A   Clear
3:55 PM 62.8 °F - 20.3 °F 20% 30.25 in 10.0 mi North 4.6 mph - N/A   Clear
4:15 PM 62.6 °F - 21.4 °F 21% 30.25 in 10.0 mi NNE 4.6 mph - N/A   Clear
4:35 PM 60.4 °F - 22.1 °F 23% 30.25 in 10.0 mi Calm Calm - N/A   Clear
4:55 PM 56.5 °F - 30.4 °F 37% 30.25 in 10.0 mi Calm Calm - N/A   Clear
5:15 PM 55.4 °F - 32.2 °F 41% 30.25 in 10.0 mi Calm Calm - N/A   Clear
5:35 PM 55.4 °F - 35.1 °F 46% 30.24 in 10.0 mi Calm Calm - N/A   Clear
5:55 PM 50.4 °F - 35.2 °F 56% 30.25 in 10.0 mi Calm Calm - N/A   Clear
6:15 PM 50.2 °F - 38.5 °F 64% 30.25 in 10.0 mi Calm Calm - N/A   Clear
6:35 PM 50.2 °F - 38.3 °F 64% 30.25 in 10.0 mi Calm Calm - N/A   Clear
6:55 PM 47.7 °F - 38.1 °F 70% 30.26 in 10.0 mi Calm Calm - N/A   Clear
7:15 PM 45.3 °F - 36.1 °F 70% 30.25 in 10.0 mi Calm Calm - N/A   Clear
7:35 PM 43.9 °F - 36.5 °F 75% 30.27 in 10.0 mi Calm Calm - N/A   Clear
7:55 PM 43.9 °F - 36.7 °F 76% 30.28 in 10.0 mi Calm Calm - N/A   Clear
8:15 PM 43.9 °F - 36.5 °F 75% 30.27 in 10.0 mi Calm Calm - N/A   Clear
8:35 PM 44.4 °F - 36.7 °F 74% 30.27 in 10.0 mi Calm Calm - N/A   Clear
8:55 PM 49.6 °F - 37.8 °F 64% 30.27 in 10.0 mi Calm Calm - N/A   Clear
9:15 PM 43.9 °F - 36.3 °F 75% 30.26 in 10.0 mi Calm Calm - N/A   Clear
9:35 PM 46.6 °F - 37.0 °F 69% 30.27 in 10.0 mi Calm Calm - N/A   Clear
9:55 PM 50.2 °F - 36.5 °F 59% 30.27 in 10.0 mi Calm Calm - N/A   Clear
10:15 PM 50.2 °F - 36.5 °F 59% 30.27 in 10.0 mi Calm Calm - N/A   Clear
10:35 PM 50.2 °F - 38.1 °F 63% 30.28 in 10.0 mi Calm Calm - N/A   Clear
10:55 PM 44.1 °F - 36.9 °F 76% 30.28 in 10.0 mi Calm Calm - N/A   Clear
11:15 PM 44.2 °F - 37.6 °F 77% 30.27 in 10.0 mi Calm Calm - N/A   Clear
11:35 PM 43.3 °F - 37.6 °F 80% 30.27 in 10.0 mi Calm Calm - N/A   Clear
11:55 PM 43.2 °F - 37.6 °F 81% 30.27 in 10.0 mi Calm Calm - N/A   Clear